When you browse on this site, cookies collect data to enhance your experience and personalize the content and advertising you see.
Visit our Privacy Policy to learn more. By continuing to use the site, you agree to this use of cookies and data.
  • In Czech Republic
  • List of Countries
  • For 7 days
  • Water Temperature
  • Satellite Maps
  • Weather Map
  • Weather Widgets
  • user-avatar
    Login

    Hourly Weather Bamenda

    Today, 20 June, Thursday

    Time Temperature Precipitation Wind Pressure Humidity
    00:00 +19°C° 0.2 mm 1 mps 642 mmHg 93%
    01:00 +18°C° 0 mm 1 mps 642 mmHg 93%
    02:00 +18°C° 0.3 mm 1 mps 642 mmHg 93%
    03:00 +18°C° 0.3 mm 1 mps 641 mmHg 93%
    04:00 +18°C° 0.3 mm 1 mps 641 mmHg 92%
    05:00 +17°C° 0.4 mm 0 mps 642 mmHg 92%
    06:00 +17°C° 0.4 mm 0 mps 642 mmHg 92%
    07:00 +17°C° 0.4 mm 0 mps 642 mmHg 92%
    08:00 +19°C° 0.7 mm 0 mps 643 mmHg 90%
    09:00 +20°C° 0.7 mm 0 mps 644 mmHg 88%
    10:00 +24°C° 0.7 mm 1 mps 644 mmHg 86%
    11:00 +24°C° 1.5 mm 1 mps 644 mmHg 85%
    12:00 +24°C° 1.5 mm 1 mps 644 mmHg 84%
    13:00 +25°C° 1.5 mm 1 mps 643 mmHg 83%
    14:00 +24°C° 2.5 mm 1 mps 643 mmHg 86%
    15:00 +24°C° 2.5 mm 1 mps 642 mmHg 88%
    16:00 +23°C° 2.5 mm 1 mps 641 mmHg 90%
    17:00 +22°C° 1.1 mm 1 mps 642 mmHg 92%
    18:00 +21°C° 1.1 mm 1 mps 642 mmHg 94%
    19:00 +20°C° 1.1 mm 1 mps 642 mmHg 96%
    20:00 +20°C° 0.7 mm 1 mps 642 mmHg 96%
    21:00 +20°C° 0.7 mm 1 mps 643 mmHg 96%
    22:00 +19°C° 0.7 mm 1 mps 643 mmHg 96%
    23:00 +19°C° 0.8 mm 1 mps 643 mmHg 96%

    Tomorrow, 21 June, Friday

    Time Temperature Precipitation Wind Pressure Humidity
    00:00 +19°C° 0.8 mm 1 mps 643 mmHg 97%
    01:00 +19°C° 0.8 mm 1 mps 643 mmHg 97%
    02:00 +19°C° 0.6 mm 1 mps 643 mmHg 97%
    03:00 +17°C° 0.6 mm 0 mps 642 mmHg 97%
    04:00 +17°C° 0.6 mm 0 mps 642 mmHg 98%
    05:00 +17°C° 1 mm 0 mps 642 mmHg 98%
    06:00 +17°C° 1 mm 0 mps 643 mmHg 98%
    07:00 +17°C° 1 mm 0 mps 643 mmHg 98%
    08:00 +18°C° 0.6 mm 0 mps 644 mmHg 96%
    09:00 +19°C° 0.6 mm 0 mps 644 mmHg 94%
    10:00 +19°C° 0.6 mm 0 mps 645 mmHg 92%
    11:00 +22°C° 1 mm 1 mps 644 mmHg 90%
    12:00 +23°C° 1 mm 1 mps 644 mmHg 88%
    13:00 +24°C° 1 mm 1 mps 644 mmHg 86%
    14:00 +23°C° 1.1 mm 1 mps 643 mmHg 88%
    15:00 +23°C° 1.1 mm 1 mps 642 mmHg 89%
    16:00 +23°C° 1.1 mm 1 mps 642 mmHg 91%
    17:00 +22°C° 0.9 mm 1 mps 642 mmHg 93%
    18:00 +21°C° 0.9 mm 1 mps 642 mmHg 95%
    19:00 +20°C° 0.9 mm 1 mps 642 mmHg 97%
    20:00 +20°C° 0.8 mm 1 mps 643 mmHg 96%
    21:00 +20°C° 0.8 mm 1 mps 643 mmHg 96%
    22:00 +17°C° 0.8 mm 0 mps 643 mmHg 96%
    23:00 +17°C° 0.2 mm 0 mps 643 mmHg 96%

    Day after tomorrow, 22 June, Saturday

    Time Temperature Precipitation Wind Pressure Humidity
    00:00 +17°C° 0.2 mm 0 mps 643 mmHg 95%
    01:00 +17°C° 0.2 mm 0 mps 642 mmHg 95%
    02:00 +17°C° 0.1 mm 0 mps 642 mmHg 96%
    03:00 +17°C° 0.1 mm 0 mps 642 mmHg 96%
    04:00 +19°C° 0.1 mm 1 mps 642 mmHg 97%
    05:00 +19°C° 0.1 mm 1 mps 642 mmHg 97%
    06:00 +17°C° 0.1 mm 0 mps 643 mmHg 97%
    07:00 +17°C° 0.1 mm 0 mps 643 mmHg 97%
    08:00 +20°C° 1 mm 1 mps 644 mmHg 95%
    09:00 +21°C° 1 mm 1 mps 645 mmHg 93%
    10:00 +22°C° 1 mm 1 mps 645 mmHg 91%
    11:00 +22°C° 1.8 mm 1 mps 645 mmHg 91%
    12:00 +23°C° 1.8 mm 1 mps 644 mmHg 90%
    13:00 +23°C° 1.8 mm 1 mps 644 mmHg 90%
    14:00 +22°C° 1.5 mm 1 mps 643 mmHg 92%
    15:00 +21°C° 1.5 mm 1 mps 642 mmHg 94%
    16:00 +19°C° 1.5 mm 0 mps 641 mmHg 96%
    17:00 +20°C° 0.2 mm 1 mps 641 mmHg 96%
    18:00 +20°C° 0.2 mm 1 mps 641 mmHg 96%
    19:00 +19°C° 0.2 mm 1 mps 642 mmHg 97%
    20:00 +19°C° 0 mm 1 mps 642 mmHg 97%
    21:00 +18°C° 0 mm 1 mps 642 mmHg 97%
    22:00 +18°C° 0 mm 1 mps 642 mmHg 97%
    23:00 +18°C° 0 mm 1 mps 642 mmHg 97%

    23 June, Sunday

    Time Temperature Precipitation Wind Pressure Humidity
    00:00 +18°C° 0 mm 1 mps 642 mmHg 97%
    01:00 +18°C° 0 mm 1 mps 642 mmHg 97%
    02:00 +18°C° 0 mm 1 mps 642 mmHg 97%
    03:00 +18°C° 0 mm 1 mps 642 mmHg 97%
    04:00 +18°C° 0 mm 1 mps 641 mmHg 97%
    05:00 +18°C° 0 mm 1 mps 642 mmHg 97%
    06:00 +19°C° 0 mm 1 mps 642 mmHg 97%
    07:00 +19°C° 0 mm 1 mps 642 mmHg 97%
    08:00 +20°C° 0 mm 1 mps 643 mmHg 92%
    09:00 +21°C° 0 mm 1 mps 644 mmHg 86%
    10:00 +23°C° 0 mm 1 mps 644 mmHg 81%
    11:00 +23°C° 0.3 mm 1 mps 644 mmHg 80%
    12:00 +24°C° 0.3 mm 1 mps 643 mmHg 79%
    13:00 +24°C° 0.3 mm 1 mps 643 mmHg 78%
    14:00 +24°C° 0.6 mm 1 mps 642 mmHg 80%
    15:00 +24°C° 0.6 mm 1 mps 642 mmHg 82%
    16:00 +23°C° 0.6 mm 1 mps 641 mmHg 85%
    17:00 +22°C° 0.6 mm 1 mps 641 mmHg 89%
    18:00 +21°C° 0.6 mm 1 mps 641 mmHg 93%
    19:00 +20°C° 0.6 mm 1 mps 641 mmHg 97%
    20:00 +19°C° 1.6 mm 1 mps 641 mmHg 96%
    21:00 +19°C° 1.6 mm 1 mps 642 mmHg 96%
    22:00 +19°C° 1.6 mm 1 mps 642 mmHg 96%
    23:00 +19°C° 0.7 mm 1 mps 642 mmHg 96%

    24 June, Monday

    Time Temperature Precipitation Wind Pressure Humidity
    00:00 +19°C° 0.7 mm 1 mps 642 mmHg 97%
    01:00 +19°C° 0.7 mm 1 mps 642 mmHg 97%
    02:00 +19°C° 0.5 mm 1 mps 641 mmHg 97%
    03:00 +19°C° 0.5 mm 1 mps 641 mmHg 97%
    04:00 +19°C° 0.5 mm 1 mps 641 mmHg 97%
    05:00 +19°C° 0.4 mm 1 mps 641 mmHg 97%
    06:00 +19°C° 0.4 mm 1 mps 642 mmHg 97%
    07:00 +17°C° 0.4 mm 0 mps 642 mmHg 97%
    08:00 +17°C° 0.7 mm 0 mps 642 mmHg 97%
    09:00 +19°C° 0.7 mm 1 mps 643 mmHg 97%
    10:00 +19°C° 0.7 mm 1 mps 643 mmHg 96%
    11:00 +20°C° 1 mm 1 mps 643 mmHg 96%
    12:00 +20°C° 1 mm 1 mps 642 mmHg 95%
    13:00 +20°C° 1 mm 1 mps 642 mmHg 95%
    14:00 +20°C° 0.5 mm 1 mps 641 mmHg 93%
    15:00 +21°C° 0.5 mm 1 mps 641 mmHg 91%
    16:00 +21°C° 0.5 mm 1 mps 641 mmHg 89%
    17:00 +20°C° 0.2 mm 1 mps 641 mmHg 92%
    18:00 +20°C° 0.2 mm 1 mps 641 mmHg 94%
    19:00 +19°C° 0.2 mm 1 mps 640 mmHg 97%
    20:00 +19°C° 0 mm 1 mps 641 mmHg 97%
    21:00 +19°C° 0 mm 1 mps 641 mmHg 97%
    22:00 +18°C° 0 mm 1 mps 641 mmHg 96%
    23:00 +18°C° 0 mm 1 mps 641 mmHg 97%

    25 June, Tuesday

    Time Temperature Precipitation Wind Pressure Humidity
    00:00 +18°C° 0 mm 1 mps 641 mmHg 97%
    01:00 +16°C° 0 mm 1 mps 641 mmHg 97%
    02:00 +16°C° 0 mm 1 mps 641 mmHg 97%
    03:00 +16°C° 0 mm 1 mps 641 mmHg 97%
    04:00 +16°C° 0 mm 1 mps 641 mmHg 97%
    05:00 +16°C° 0 mm 1 mps 641 mmHg 97%
    06:00 +18°C° 0 mm 1 mps 641 mmHg 96%
    07:00 +16°C° 0 mm 0 mps 642 mmHg 95%
    08:00 +20°C° 0.2 mm 1 mps 642 mmHg 91%
    09:00 +21°C° 0.2 mm 1 mps 643 mmHg 86%
    10:00 +23°C° 0.2 mm 1 mps 644 mmHg 82%
    11:00 +23°C° 1.4 mm 1 mps 643 mmHg 84%
    12:00 +23°C° 1.4 mm 1 mps 643 mmHg 85%
    13:00 +23°C° 1.4 mm 1 mps 642 mmHg 87%
    14:00 +23°C° 2.1 mm 1 mps 642 mmHg 88%
    15:00 +23°C° 2.1 mm 1 mps 641 mmHg 89%
    16:00 +21°C° 2.1 mm 0 mps 641 mmHg 90%
    17:00 +22°C° 1.5 mm 1 mps 641 mmHg 92%
    18:00 +20°C° 1.5 mm 1 mps 641 mmHg 94%
    19:00 +19°C° 1.5 mm 1 mps 641 mmHg 96%
    20:00 +19°C° 1 mm 1 mps 641 mmHg 96%
    21:00 +19°C° 1 mm 1 mps 642 mmHg 97%
    22:00 +18°C° 1 mm 1 mps 642 mmHg 98%
    23:00 +18°C° 0.3 mm 1 mps 642 mmHg 98%
    Show more